AirNav   Air Wisconsin Up To $57,000 Bonus
 
 1021 users online  

1MO Mountain Grove Memorial Airport
Mountain Grove, Missouri, USA

GOING TO MOUNTAIN GROVE?


FAA INFORMATION EFFECTIVE 16 JUNE 2022

Location

FAA Identifier: 1MO
Lat/Long: 37-07-15.1011N 092-18-36.3840W
37-07.251685N 092-18.606400W
37.1208614,-92.3101067
(estimated)
Elevation: 1476.4 ft. / 450.0 m (surveyed)
Variation: 01E (2010)
From city: 3 miles SW of MOUNTAIN GROVE, MO
Time zone: UTC -5 (UTC -6 during Standard Time)
Zip code: 65711

Airport Operations

Airport use: Open to the public
Control tower: no
ARTCC: KANSAS CITY CENTER
FSS: COLUMBIA FLIGHT SERVICE STATION
NOTAMs facility: COU (NOTAM-D service available)
Attendance: CONTINUOUS
Wind indicator: lighted
Segmented circle: yes
Lights: ACTVT REIL RWY 08 & 26; MIRL RWY 08/26 - CTAF.
Beacon: white-green (lighted land airport)
ROTG BCN ON WATER TOWER EAST OF ARPT. Operates sunset to sunrise.

Airport Communications

CTAF: 122.9
  • APCH/DEP SVC PRVDD BY KANSAS CITY ARTCC ON FREQS 128.35/284.675 (RICHLAND RCAG).

Airport Services

Parking: tiedowns
Airframe service: MINOR
Powerplant service: MAJOR

Runway Information

Runway 8/26

Dimensions: 2922 x 60 ft. / 891 x 18 m
Surface: asphalt/rubberized friction seal coat, in excellent condition
Runway edge lights: medium intensity
RUNWAY 8  RUNWAY 26
Latitude: 37-07.214888N37-07.288480N
Longitude: 092-18.903510W092-18.309288W
Elevation: 1452.2 ft.1476.2 ft.
Traffic pattern: leftleft
Runway heading: 080 magnetic, 081 true260 magnetic, 261 true
Markings: nonprecision, in good conditionnonprecision, in good condition
Visual slope indicator: 2-light PAPI on left (4.00 degrees glide path)2-light PAPI on left (4.00 degrees glide path)
Runway end identifier lights: yesyes
Touchdown point: yes, no lightsyes, no lights
Obstructions: 46 ft. trees, 307 ft. from runway, 150 ft. right of centerline, 2:1 slope to clear
RWY 8 HAS 18-54 FT TREES 0-200 FT FROM RWY END 150-228 FT RIGHT AND 195-200 FT LEFT.
15 ft. road, 285 ft. from runway, 250 ft. left and right of centerline, 5:1 slope to clear

Airport Ownership and Management from official FAA records

Ownership: Publicly-owned
Owner: CITY OF MOUNTAIN GROVE
100 E. STATE, P.O. BOX 351
MOUNTAIN GROVE, MO 65711
Phone 417-926-4162
Manager: TIM SCHOOK
100 E. STATE STREET
MOUNTAIN GROVE, MO 65711
Phone (417) 926-4162

Airport Operational Statistics

Aircraft based on the field: 10
Single engine airplanes: 9
Jet airplanes: 1
  • ULTRALIGHT ACTVTY ON & INVOF ARPT.
    
Aircraft operations: avg 53/week *
54% transient general aviation
46% local general aviation
* for 12-month period ending 31 December 2018

Additional Remarks

CROP DUSTING ACFT ON & INVOF ARPT.
NUMEROUS PART 77 OBSTRUCTIONS IN PRIMARY, APPROACH, & TRANSTIONAL SURFACES AROUND ENTIRE RY.
FOR CD CTC KANSAS CITY ARTCC AT 913-254-8508.

Instrument Procedures

NOTE: All procedures below are presented as PDF files. If you need a reader for these files, you should download the free Adobe Reader.

NOT FOR NAVIGATION. Please procure official charts for flight.
FAA instrument procedures published for use from 16 June 2022 at 0901Z to 14 July 2022 at 0900z.

 
IAPs - Instrument Approach Procedures
RNAV (GPS) RWY 08   download (175KB)
RNAV (GPS) RWY 26   download (183KB)
NOTE: Special Take-Off Minimums/Departure Procedures apply   download (421KB)

Other nearby airports with instrument procedures:

KTVB - Cabool Memorial Airport (11 nm E)
KAOV - Ava Bill Martin Memorial Airport (20 nm SW)
M48 - Houston Memorial Airport (20 nm NE)
KUNO - West Plains Regional Airport (24 nm SE)
KMNF - Mountain View Airport (30 nm E)
 
Loc | Ops | Rwys | IFR | FBO | Links
Com | Nav | Svcs | Stats | Notes
Area around 1MO (Mountain Grove Memorial Airport)
 
Road maps at: MapQuest Bing Google
 
Aerial photo
WARNING: Photo may not be current or correct
Aerial photo of 1MO (Mountain Grove Memorial Airport)
Photo taken 06-Jan-2013
looking west southwest.

Do you have a better or more recent aerial photo of Mountain Grove Memorial Airport that you would like to share? If so, please send us your photo.

 
Sectional chart

 
Airport distance calculator
Flying to Mountain Grove Memorial Airport? Find the distance to fly.

From to 1MO

Sunrise and sunset
Times for 02-Jul-2022
 Local
(UTC-5)
 Zulu
(UTC)
Morning civil twilight05:2410:24
Sunrise05:5410:54
Sunset20:3201:32
Evening civil twilight21:0302:03

Current date and time
Zulu (UTC)  02-Jul-2022 20:20:59
Local (UTC-5)  02-Jul-2022 15:20:59
 
METAR
KUNO 
24nm SE 
021953Z AUTO 05014G19KT 10SM CLR 31/21 A3001 RMK AO2 LTG DSNT W SLP146 T03110211
KLBO 
36nm NW 
021955Z AUTO 04007KT 10SM CLR 28/20 A3004 RMK AO2
KTBN 
37nm N 
021956Z AUTO 04007KT 10SM FEW160 FEW180 26/20 A3001 RMK AO2 SLP155 T02640202
KBPK 
46nm S 
021953Z AUTO VRB04KT 10SM FEW075 34/19 A2995 RMK AO2 LTG DSNT N SLP130 T03440194
TAF
KBPK 
46nm S 
021720Z 0218/0318 17004KT P6SM SCT040 FM022200 12006KT P6SM VCTS SCT040CB FM030100 VRB03KT P6SM OVC090 FM031500 13003KT P6SM OVC100
NOTAMs
Click for the latest NOTAMs
NOTAMs are issued by the DoD/FAA and will open in a separate window not controlled by AirNav.

 

 
 

Would you like to see your business listed on this page?

 If your business provides an interesting product or service to pilots, flight crews, aircraft, or users of the Mountain Grove Memorial Airport, you should consider listing it here.  To start the listing process, click on the button below
 
Add a business
 

Other Pages about Mountain Grove Memorial Airport

Update a link
 
Copyright © AirNav, LLC. All rights reserved. Privacy Policy  Contact